Terug naar catalogus

COSMOS 2251 DEB

LostVLEO
NORAD 36419·DEBRIS·🇷🇺 Russia

Gelanceerd Jun 16, 1993 vanaf Plesetsk Cosmodrome

Loading…

Volgende Passages (komende 24 uur)

TLE

VerouderdSource: Space-Track

Epoch: Sep 28, 2025, 11:40 UTC

1 36419U 93036AZS 25271.48652179  .00533702  00000-0  15715-1 0  9993
2 36419  73.8021 330.3553 0028595 300.9220  58.9172 15.32416399640581

Volg COSMOS 2251 DEB in realtime met AllMySat

Download on the App Store